Regional Weather Roundup
Issued by NWS

Home | Current Version | Previous Version | Graphics & Text | Print | Product List | Glossary On
Versions: 1 2 3 4 5 6 7 8 9 10 11 12 13 14 15 16 17 18 19 20 21 22 23 24 25 26 27 28 29 30 31 32 33 34 35 36 37 38 39 40 41 42 43 44 45 46 47 48 49 50
000
ASUS43 KLSX 240659
RWRMO

WEATHER SUMMARY FOR MISSOURI
NATIONAL WEATHER SERVICE SPRINGFIELD MO
200 AM CDT SUN MAY 24 2015

NOTE: "FAIR" INDICATES FEW OR NO CLOUDS BELOW 12,000 FEET WITH NO
       SIGNIFICANT WEATHER AND/OR OBSTRUCTIONS TO VISIBILITY.
       CURRENT SKY AND/OR WEATHER CONDITIONS ARE NOT AVAILABLE FOR
       CHILLICOTHE AND FARMINGTON.

MOZ001>031-035>038-043-044-053-054-240800-
...NORTHERN AND WESTERN MISSOURI...

CITY           SKY/WX    TMP DP  RH WIND       PRES   REMARKS
KANSAS CTY INT RAIN      61  60  97 E17       29.96F
KANSAS C DTWN  RAIN      63  60  90 E9        29.95F
LEE`S SUMMIT   RAIN      62  59  90 E13       29.97F
ST JOSEPH      RAIN      62  60  93 SE14      29.97F FOG
KIRKSVILLE     RAIN      60  59  96 S10       30.12F FOG

$$
MOZ066>068-077>081-088>096-101>105-240800-
...SOUTHWEST MISSOURI...

CITY           SKY/WX    TMP DP  RH WIND       PRES   REMARKS
SPRINGFIELD    CLOUDY    68  57  68 SE24      29.97F
JOPLIN         LGT RAIN  67  64  90 SE12      29.92F

$$
MOZ032>034-039>042-045>050-055>058-069>072-240800-
...CENTRAL MISSOURI...

CITY           SKY/WX    TMP DP  RH WIND       PRES   REMARKS
COLUMBIA       LGT RAIN  61  57  87 E9        30.07F
JEFFERSON CITY CLOUDY    67  53  61 E9        30.05F
ROLLA          CLOUDY    64  53  67 SE9       30.05F
SEDALIA        CLOUDY    61  57  87 E9        30.02F
OSAGE BEACH    CLOUDY    66  54  63 SE5       30.03F

$$
MOZ051-052-059>065-240800-
...EAST CENTRAL MISSOURI...

CITY           SKY/WX    TMP DP  RH WIND       PRES   REMARKS
ST LOUIS INTL  CLOUDY    70  53  54 SE8       30.12F
SPIRIT OF STL  CLOUDY    65  54  67 E5        30.10F
ST CHARLES     CLOUDY    65  55  70 E6        30.12S

$$
MOZ072>076-082>087-097>100-106>115-240800-
...SOUTH CENTRAL AND SOUTHEAST MISSOURI...

CITY           SKY/WX    TMP DP  RH WIND       PRES   REMARKS
CAPE GIRARDEAU PTCLDY    64  57  78 SE7       30.12F
FARMINGTON     CLOUDY    64  54  68 S7        30.14F
POPLAR BLUFF   MOCLDY    67  58  72 SE6       30.09F
WEST PLAINS    CLOUDY    65  54  67 SE8       30.09F

$$



USA.gov is the U.S. government's official web portal to all federal, state and local government web resources and services.